[[{"header":{"parameterUnit":"m.s-1","parameterCategory":1,"la1":30.2991,"la2":30.254,"lo1":-89.0895,"lo2":-89.0444,"dy":0.0017,"dx":0.0017,"nx":28,"ny":28,"refTime":"2025-05-17T03:00:00:Z","depth":0,"parameterNumber":2,"parameterNumberName":"U-component_of_WINDS"},"data":[0,0,0,0,0,0,0,0,0,0,0,0,0,0,0,0,0,0,0,0,0,0,0,0,0,0,0,0,0,0,0,0,0,0,0,0,0,0,0,0,0,0,0,0,0,0,0,0,0,0,0,0,0,0,0,0,0,0,1.0135,1.0136,0,1.0182,1.0183,1.0183,1.0168,1.0167,1.0166,1.0165,1.0215,1.0217,1.0219,0,0,0,0,0,0,0,0,0,0,0,0,0,1.0034,1.0036,1.0135,1.0136,1.0136,1.0182,1.0183,1.0183,1.0168,1.0167,1.0165,1.0164,1.0214,1.0217,1.0219,0,0,0,0,0,0,0,0,0,0,0,0,0,1.0079,1.0037,1.0135,1.0134,1.0134,1.0182,1.0183,1.0183,1.0168,1.0167,1.0165,1.0164,1.0213,1.0216,1.022,1.0272,0,0,1.023,1.0232,0,0,0,0,0,0,0,0,1.0077,1.0083,1.0134,1.0134,1.0135,1.0167,1.0165,1.0213,1.0168,1.0155,1.0165,1.0163,1.02,1.0205,1.0217,1.0274,1.0276,1.0231,1.0233,1.0234,1.0235,0,0,0,0,0,0,0,1.0074,1.0081,1.0154,1.0134,1.0135,1.0132,1.0137,1.0174,1.0186,1.0156,1.0155,1.0161,1.02,1.0214,1.0218,1.0277,1.023,1.0233,1.0236,1.0237,1.0379,1.0381,0,0,0,0,0,0,1.007,1.0078,1.0152,1.0155,1.0101,1.0135,1.014,1.0159,1.0185,1.0188,1.0162,1.016,1.0209,1.0214,1.022,1.0282,1.0234,1.0237,1.0239,1.0377,1.038,1.0381,0,0,0,0,0,0,1.0068,1.0077,1.015,1.0117,1.0126,1.0138,1.0159,1.016,1.0173,1.019,1.0192,1.0174,1.0208,1.0215,1.0259,1.0284,1.0239,1.0242,1.0375,1.0378,1.038,1.0408,0,0,0,0,0,0,1.0065,1.0076,1.0095,1.0117,1.0128,1.0188,1.016,1.0162,1.0179,1.0177,1.0201,1.0204,1.0207,1.0254,1.0262,1.0288,1.0245,1.0373,1.0377,1.038,1.0405,1.0411,1.0417,0,0,0,0,0,1.0061,1.0101,1.0096,1.0105,1.0152,1.019,1.0196,1.0198,1.0181,1.0201,1.0212,1.0203,1.028,1.0258,1.0268,1.0295,1.0372,1.0376,1.0379,1.0402,1.041,1.0416,0,0,0,0,0,0,1.0083,1.0104,1.0099,1.0147,1.0166,1.0187,1.0212,1.0206,1.0231,1.0228,1.023,1.0236,1.0281,1.0292,1.0268,1.0347,1.0323,1.0329,1.0337,1.0345,1.0351,1.0347,1.0247,0,0,0,0,0,1.0093,1.0121,1.0139,1.0179,1.019,1.0199,1.0216,1.0216,1.0236,1.0245,1.0258,1.0279,1.0308,1.0327,1.0355,1.0406,1.0412,1.043,1.0436,1.044,1.0445,1.0474,1.0482,1.0394,1.0394,1.0394,0,0,1.0115,1.013,1.0147,1.0184,1.0199,1.0229,1.0206,1.0239,1.0261,1.025,1.0292,1.0303,1.0326,1.0375,1.0396,1.0385,1.0471,1.0445,1.0449,1.0451,1.0479,1.0487,1.0495,1.0397,1.0396,1.0396,0,0,1.0169,1.0183,1.0219,1.0234,1.0257,1.0264,1.0272,1.0294,1.03,1.0343,1.0335,1.0362,1.0412,1.0429,1.0444,1.0505,1.0498,1.0514,1.0545,1.0573,1.058,1.0586,1.0608,1.0616,1.0519,1.052,1.052,0,1.0193,1.0237,1.0238,1.0271,1.0288,1.0279,1.0315,1.0331,1.0362,1.0374,1.0361,1.0423,1.0438,1.049,1.0505,1.0518,1.0528,1.0512,1.0579,1.0585,1.0591,1.0612,1.062,1.0521,1.0521,1.0521,1.0521,0,1.0265,1.0296,1.0322,1.0352,1.0372,1.0406,1.0413,1.0433,1.0432,1.044,1.0483,1.0501,1.0532,1.0545,1.0544,1.0597,1.0589,1.0578,1.0554,1.0601,1.0621,1.0629,1.0524,1.0523,1.0523,1.0522,0,0,1.0334,1.0364,1.0374,1.0387,1.0412,1.0437,1.0471,1.0501,1.0518,1.054,1.057,1.0612,1.0601,1.0619,1.062,1.0644,1.0692,1.0629,1.063,1.0641,1.0752,1.0761,1.0771,1.0688,1.0689,1.0691,1.0751,0,1.039,1.045,1.0453,1.0508,1.0537,1.0529,1.0559,1.0579,1.0587,1.0613,1.0623,1.0653,1.0636,1.0646,1.067,1.0681,1.0715,1.0677,1.0716,1.0717,1.071,1.0781,1.079,1.0846,1.0758,1.076,1.0761,0,1.0464,1.0488,1.0546,1.0567,1.058,1.0607,1.0635,1.0659,1.0681,1.0686,1.0705,1.0703,1.0739,1.0715,1.0765,1.0739,1.0755,1.0763,1.0766,1.0769,1.0742,1.0787,1.0864,1.0872,1.0773,1.0772,1.0771,0,1.0508,1.0555,1.0596,1.0608,1.0634,1.0653,1.0665,1.0685,1.0703,1.0728,1.074,1.0769,1.0785,1.0807,1.0813,1.0794,1.0863,1.0839,1.0868,1.0868,1.0883,1.0882,1.0964,1.0894,1.0893,1.0893,1.0893,0,1.0571,1.0607,1.0616,1.0641,1.0682,1.0685,1.0725,1.0735,1.0753,1.0781,1.0776,1.0802,1.0808,1.0836,1.0841,1.0882,1.0889,1.0894,1.0895,1.0894,1.0894,1.0905,1.0901,1.0895,1.0895,1.0895,1.0894,0,1.0627,1.0635,1.0679,1.07,1.0706,1.0735,1.0753,1.0778,1.0786,1.0821,1.0829,1.0842,1.0874,1.0882,1.0921,1.0924,1.0973,1.097,1.0965,1.0965,1.0994,1.0991,1.1086,1.1099,1.102,1.102,1.1021,0,1.0666,1.0694,1.0718,1.0736,1.0749,1.0778,1.0796,1.08,1.082,1.0847,1.0868,1.09,1.0925,1.0977,1.099,1.102,1.1018,1.1049,1.1022,1.1021,1.1019,1.1017,1.102,1.1054,1.1055,1.1056,1.1056,0,1.0736,1.0738,1.0765,1.0793,1.0815,1.0837,1.0859,1.0874,1.0881,1.0903,1.0936,1.0956,1.0995,1.1027,1.1056,1.1069,1.1064,1.1065,1.1073,1.1073,1.1069,1.1072,1.0979,1.1062,1.1062,1.1061,1.1061,1.1061,1.0785,1.0809,1.083,1.086,1.0876,1.0897,1.0921,1.0932,1.0959,1.0991,1.0992,1.1028,1.105,1.1089,1.1104,1.1132,1.1123,1.1135,1.1138,1.1141,1.1144,1.1064,1.1138,1.1138,1.1137,1.1137,1.1137,0,1.0854,1.0867,1.0894,1.0924,1.0948,1.0941,1.0965,1.0985,1.1016,1.1037,1.1062,1.11,1.1131,1.1147,1.1177,1.1197,1.1196,1.1205,1.1204,1.1207,1.115,1.114,1.1206,1.1206,1.1206,1.1206,1.1206,1.1206,1.0892,1.0933,1.0938,1.0988,1.1001,1.1035,1.105,1.1069,1.1085,1.1127,1.1153,1.1163,1.1182,1.1214,1.1242,1.1246,1.1257,1.1268,1.1271,1.1218,1.1211,1.1204,1.1194,1.1271,1.1271,1.1325,1.1326,1.1326]},{"header":{"parameterUnit":"m.s-1","parameterCategory":1,"la1":30.2991,"la2":30.254,"lo1":-89.0895,"lo2":-89.0444,"dy":0.0017,"dx":0.0017,"nx":28,"ny":28,"refTime":"2025-05-17T03:00:00:Z","depth":0,"parameterNumber":3,"parameterNumberName":"V-component_of_WINDS"},"data":[0,0,0,0,0,0,0,0,0,0,0,0,0,0,0,0,0,0,0,0,0,0,0,0,0,0,0,0,0,0,0,0,0,0,0,0,0,0,0,0,0,0,0,0,0,0,0,0,0,0,0,0,0,0,0,0,0,0,5.0077,5.0077,0,5.008,5.008,5.008,5.0043,5.0042,5.0041,5.004,5.0042,5.0043,5.0044,0,0,0,0,0,0,0,0,0,0,0,0,0,5.0038,5.0039,5.0077,5.0077,5.0077,5.008,5.008,5.008,5.0043,5.0042,5.0041,5.004,5.0042,5.0043,5.0044,0,0,0,0,0,0,0,0,0,0,0,0,0,5.005,5.004,5.0077,5.0059,5.0057,5.008,5.008,5.008,5.0044,5.0042,5.004,5.0039,5.0041,5.0043,5.0044,5.0084,0,0,5.0049,5.005,0,0,0,0,0,0,0,0,5.0049,5.0051,5.0062,5.006,5.0059,5.006,5.0067,5.0081,5.0044,5.0049,5.004,5.0038,5.0049,5.005,5.0054,5.0084,5.0084,5.0049,5.005,5.0051,5.0051,0,0,0,0,0,0,0,5.0048,5.0051,5.0078,5.0062,5.006,5.0051,5.0051,5.007,5.0057,5.0048,5.0046,5.0046,5.0048,5.0052,5.0054,5.0084,5.0049,5.005,5.0051,5.0052,5.0147,5.0149,0,0,0,0,0,0,5.005,5.005,5.0078,5.0078,5.005,5.0053,5.0052,5.0061,5.0057,5.0055,5.0048,5.0045,5.0051,5.0052,5.0053,5.01,5.0051,5.0052,5.0053,5.0146,5.0148,5.015,0,0,0,0,0,0,5.0049,5.0053,5.0078,5.0064,5.0066,5.0055,5.0064,5.0062,5.0066,5.0057,5.0054,5.0055,5.0049,5.0051,5.0077,5.0099,5.0053,5.0054,5.0144,5.0146,5.0149,5.0193,0,0,0,0,0,0,5.0048,5.0053,5.0068,5.0064,5.0067,5.0101,5.0066,5.0063,5.0069,5.0065,5.0062,5.0061,5.0048,5.0075,5.0078,5.0101,5.0055,5.0142,5.0145,5.0148,5.0189,5.0197,5.0203,0,0,0,0,0,5.0047,5.008,5.0069,5.0072,5.0086,5.0103,5.0104,5.009,5.0071,5.0086,5.008,5.0061,5.0096,5.0078,5.0081,5.0104,5.014,5.0144,5.0148,5.0186,5.0195,5.0203,0,0,0,0,0,0,5.0086,5.0079,5.0067,5.0099,5.0102,5.0097,5.0115,5.01,5.0108,5.0104,5.0085,5.0085,5.0113,5.0111,5.0091,5.0143,5.0115,5.012,5.0143,5.0151,5.0158,5.0158,5.0056,0,0,0,0,0,5.0098,5.0113,5.0106,5.0135,5.0138,5.0126,5.0133,5.0122,5.0124,5.0125,5.0121,5.0123,5.0135,5.0143,5.0153,5.0189,5.0188,5.0207,5.0213,5.0219,5.0223,5.0242,5.0251,5.0162,5.0162,5.0162,0,0,5.0123,5.0122,5.0132,5.0143,5.0144,5.016,5.0127,5.0145,5.0157,5.0127,5.0151,5.0149,5.015,5.0181,5.0194,5.018,5.0248,5.0224,5.0228,5.0229,5.0247,5.0255,5.0263,5.0164,5.0164,5.0163,0,0,5.0178,5.0178,5.0203,5.0205,5.0207,5.0199,5.0205,5.0202,5.02,5.0224,5.0202,5.0215,5.0236,5.0238,5.0242,5.0298,5.0281,5.0302,5.0337,5.0356,5.0363,5.0369,5.039,5.0397,5.0306,5.0306,5.0307,0,5.0209,5.0233,5.0217,5.0237,5.0243,5.0218,5.0242,5.0245,5.025,5.0254,5.0238,5.0264,5.0263,5.0295,5.0309,5.0313,5.0319,5.0302,5.0363,5.0369,5.0375,5.0394,5.0402,5.0309,5.0309,5.0308,5.0308,0,5.0271,5.0288,5.0307,5.0314,5.0322,5.0344,5.0332,5.0342,5.033,5.0324,5.0349,5.0347,5.0357,5.0364,5.0352,5.0394,5.0385,5.0367,5.0338,5.0386,5.0404,5.0411,5.0313,5.0312,5.0311,5.031,0,0,5.0349,5.0348,5.0356,5.0358,5.0359,5.0372,5.0393,5.0403,5.0412,5.0416,5.0434,5.0452,5.0436,5.044,5.0428,5.0445,5.0491,5.0425,5.0424,5.0437,5.0537,5.0551,5.056,5.0479,5.0481,5.0482,5.0537,0,5.0403,5.044,5.0427,5.0464,5.0479,5.0456,5.0475,5.0477,5.0472,5.0484,5.0479,5.0493,5.0469,5.0472,5.0487,5.0482,5.051,5.0478,5.0495,5.0496,5.0496,5.0569,5.0584,5.0636,5.0544,5.0545,5.0546,0,5.047,5.0478,5.0517,5.0516,5.0522,5.0539,5.0548,5.056,5.0562,5.0558,5.0563,5.0548,5.0569,5.0541,5.0569,5.0547,5.0554,5.0552,5.0554,5.0555,5.0524,5.0572,5.0652,5.066,5.0556,5.0556,5.0555,0,5.0524,5.0545,5.0571,5.0574,5.0573,5.0586,5.0586,5.0587,5.0594,5.0602,5.0606,5.0616,5.0621,5.0629,5.0617,5.0598,5.0647,5.0618,5.0644,5.0645,5.0656,5.0655,5.0738,5.066,5.066,5.0659,5.0659,0,5.0585,5.061,5.0595,5.0611,5.0639,5.0624,5.0651,5.0649,5.065,5.0665,5.0645,5.066,5.0643,5.0656,5.0647,5.0672,5.0675,5.0672,5.0669,5.0674,5.0674,5.0678,5.0674,5.0661,5.0661,5.0661,5.066,0,5.0649,5.0641,5.0668,5.0665,5.0665,5.0686,5.0683,5.0698,5.0692,5.0712,5.0716,5.0706,5.0721,5.071,5.0724,5.0717,5.0751,5.0743,5.075,5.0748,5.0775,5.0773,5.0863,5.0874,5.0789,5.0789,5.079,0,5.0689,5.0708,5.0708,5.0717,5.0719,5.0734,5.0741,5.0727,5.0736,5.0741,5.0755,5.0768,5.0777,5.0802,5.0796,5.0807,5.0799,5.083,5.08,5.0805,5.08,5.0799,5.0801,5.0836,5.0837,5.0838,5.0838,0,5.0761,5.0756,5.0768,5.0779,5.0788,5.0796,5.0802,5.081,5.0796,5.0807,5.0822,5.0829,5.0844,5.0857,5.0866,5.0866,5.085,5.0848,5.0854,5.0859,5.0863,5.0862,5.0767,5.0846,5.0845,5.0844,5.0844,5.0844,5.0814,5.083,5.0833,5.0847,5.085,5.0857,5.0871,5.0867,5.0879,5.0891,5.0882,5.09,5.0902,5.0912,5.0914,5.0928,5.0915,5.0925,5.0927,5.093,5.0934,5.0861,5.093,5.0929,5.0929,5.0929,5.0929,0,5.0885,5.0886,5.0899,5.0909,5.092,5.0905,5.0911,5.0921,5.0937,5.0941,5.0951,5.0969,5.0981,5.0977,5.0988,5.1,5.0993,5.1004,5.1003,5.1003,5.0945,5.0938,5.1009,5.1009,5.1009,5.1009,5.1009,5.1009,5.0923,5.095,5.0945,5.0973,5.0973,5.0992,5.0996,5.1002,5.1005,5.1026,5.1037,5.1034,5.1035,5.1046,5.1057,5.1055,5.1061,5.1074,5.107,5.1015,5.1007,5.1,5.0993,5.1075,5.1075,5.1127,5.1128,5.1128]}]]